Terug naar catalogus

FENGYUN 1C DEB

ActiefSSO
NORAD 30464·DEBRIS·🇨🇳 China

Gelanceerd May 10, 1999 vanaf Taiyuan Satellite Launch Center

Loading…

Volgende Passages (komende 24 uur)

TLE

VersSource: Space-Track

Epoch: Sep 13, 2026, 17:03 UTC

1 30464U 99025AGB 26256.71042175 -.00000001  00000-0  22683-4 0  9997
2 30464  98.7989 306.6871 0108873 200.8923 285.4997 14.10326822  9351

Volg FENGYUN 1C DEB in realtime met AllMySat

Download on the App Store